{"data":{"norad_id":42847,"intl_designator":"2017-042Y","name":"CORVUS BC1","alt_names":[],"object_type":"PAYLOAD","status":"ACTIVE","operator":null,"country":"US","launch_date":"2017-07-14","launch_site_code":"TYMSC","launch_vehicle":null,"mission":null,"orbit_class":"UNKNOWN","rcs_meters":null,"size_class":null,"mass_kg":null,"dimensions":null,"purposes":["tech_demo"],"wikipedia_slug":null,"has_3d_model":false,"image_url":null,"decayed_at":null,"tle_current":{"epoch":"2026-09-19T21:25:08.511168Z","epoch_age_seconds":70703,"freshness":"FRESH","line1":"1 42847U 17042Y   26262.89245962  .00001601  00000+0  11090-3 0  9993","line2":"2 42847  97.4212  61.5370 0013182 120.0810 240.1727 15.06940483501358","mean_motion":15.06940483,"eccentricity":0.0013182,"inclination_deg":97.4212,"raan_deg":61.537,"arg_perigee_deg":120.081,"mean_anomaly_deg":240.1727,"bstar":0.0001109,"rev_number":50135,"period_min":95.55785488842,"perigee_km":536.42873899117,"apogee_km":554.68236203134,"semimajor_km":6923.6925505113,"source":"CELESTRAK","updated_at":"2026-09-20T09:00:48.032670Z"}}}